www.pogodaiklimat.ru

Погода и климат >> Архив погоды >> Таиланд >> Наратхиват


ПОГОДА в Наратхивате

  • Прогноз погоды в Наратхивате
  • Монитор погоды в Наратхивате

АРХИВ ПОГОДЫ в Наратхивате

Время (UTC), дата Ветер
(напр.,м/с)
 
Видим.   Явления Облачность Т
(С)
Тd
(С)
f
(%)
Тe
(С)
Тes
(С)
Комфортность P
(гПа)
Po
(гПа)
Тmin
(С)
Tmax
(С)
R
(мм)
R24
(мм)
S
(см)
12 16.09 штиль 0 10 км 8/3 600 м
[Cu med, cong Cs]
+28.5 +24.2 78 +40 +40 очень
душно
1007.7 1007.1 +32.4
15 16.09 штиль 0 10 км 8/3 600 м
[Cu med, cong Cs]
+28.0 +22.1 70 +36 +36 очень
душно
1009.4 1008.8
18 16.09 штиль 0 9000 м дымка 8/3 600 м
[Cu med, cong Cs]
+25.7 +23.0 85 +34 +34 очень
душно
1009.1 1008.5
21 16.09 штиль 0 8000 м дымка 8/3 600 м
[Cu med, cong Cs]
+25.7 +23.0 85 +34 +34 очень
душно
1008.7 1008.1
00 17.09 штиль 0 9000 м дымка 8/3 600 м
[Cu med, cong Cs]
+25.0 +23.2 90 +33 +34 очень
душно
1009.7 1009.1
03 17.09 штиль 0 10 км 8/3 600 м
[Cu med, cong Ac und Cs]
+30.0 +25.0 75 +43 +53 опасность
перегрева
1011.0 1010.5
06 17.09 штиль 0 12 км 8/3 600 м
[Cu med, cong Cs]
+32.7 +24.6 62 +45 +62 опасность
перегрева
1008.1 1007.5
09 17.09 штиль 0 10 км 8/3 600 м
[Cu med, cong Cs]
+31.0 +25.4 72 +45 +50 опасность
перегрева
1007.2 1006.6
12 17.09 штиль 0 10 км 8/3 600 м
[Cu med, cong Cs]
+29.5 +24.2 73 +41 +41 опасность
перегрева
1008.8 1008.3 +33.4
15 17.09 штиль 0 10 км 8/3 600 м
[Cu med, cong Cs]
+27.5 +24.3 83 +39 +39 очень
душно
1010.3 1009.7
18 17.09 штиль 0 8000 м дымка 8/3 600 м
[Cu hum Cs]
+26.2 +23.4 85 +36 +36 очень
душно
1009.0 1008.5
21 17.09 штиль 0 8000 м дымка 8/3 600 м
[Cu hum Cs]
+24.7 +22.5 88 +32 +32 очень
душно
1008.3 1007.7
00 18.09 штиль 0 8000 м дымка 9/3 600 м
[Cu hum Cs]
+25.0 +23.2 90 +33 +34 очень
душно
1009.7 1009.1
03 18.09 штиль 0 10 км 9/3 600 м
[Cu hum Cs]
+28.0 +24.4 81 +39 +51 опасность
солнечного
удара
1011.7 1011.1
06 18.09 Ю 6 10 км 10/3 600 м
[Cu med, cong Cs]
+31.5 +23.6 63 +43 +47 опасность
перегрева
1009.4 1008.8
09 18.09 штиль 0 10 км 10/3 600 м
[Cu med, cong Cs]
+30.5 +24.3 70 +43 +48 опасность
перегрева
1008.6 1008.0
12 18.09 ЮВ 2 7000 м слаб. дождь 10/3 300 м
[Cu Sc Ac As Cs]
+27.4 +24.1 82 +38 +38 очень
душно
1009.7 1009.1 +32.5 3
15 18.09 штиль 0 8000 м дымка 10/3 300 м
[Cu Sc Ac As Cs]
+25.7 +24.1 91 +36 +36 очень
душно
1012.4 1011.8
18 18.09 штиль 0 8000 м дымка 10/3 600 м
[Cu med, cong Ac As Cs]
+25.1 +23.8 93 +34 +34 очень
душно
1010.3 1009.7
21 18.09 штиль 0 8000 м дымка 10/3 600 м
[Cu med, cong Ac As Cs]
+24.9 +23.9 94 +34 +34 очень
душно
1009.8 1009.2
00 19.09 штиль 0 8000 м дымка {дождь} 10/3 300 м
[Cu med, cong Ac As Cs]
+25.0 +24.3 96 +35 +35 очень
душно
1011.4 1010.8 0.5
03 19.09 штиль 0 9000 м дымка 10/3 600 м
[Cu med, cong Ac As Cs]
+28.7 +25.6 83 +42 +49 опасность
перегрева
1012.2 1011.6
06 19.09 С 6 6000 м дымка 10/3 600 м
[Cu med, cong Ac As Cs]
+30.0 +25.0 75 +43 +46 опасность
перегрева
1009.5 1009.0
09 19.09 штиль 0 6000 м дымка 9/3 600 м
[Cu med, cong Cs]
+29.5 +25.2 78 +43 +48 опасность
перегрева
1008.2 1007.6
12 19.09 штиль 0 6000 м дымка 9/3 600 м
[Cu med, cong Cs]
+27.5 +22.9 76 +37 +37 очень
душно
1011.1 1010.5 +31.5
15 19.09 штиль 0 6000 м дымка 8/3 600 м
[Cu med, cong Cs]
+25.5 +23.3 88 +34 +34 очень
душно
1012.8 1012.3
18 19.09 штиль 0 8000 м дымка 8/3 600 м
[Cu med, cong Cs]
+25.0 +23.5 91 +34 +34 очень
душно
1010.2 1009.6
21 19.09 штиль 0 8000 м дымка 8/3 600 м
[Cu med, cong Cs]
+24.5 +23.0 91 +32 +32 очень
душно
1009.4 1008.8
00 20.09 З 3 8000 м дымка 8/3 600 м
[Cu med, cong Cs]
+24.0 +22.5 91 +31 +32 очень
душно
1010.9 1010.3
03 20.09 штиль 0 10 км 8/3 600 м
[Cu med, cong Cs]
+29.0 +23.2 71 +39 +51 опасность
солнечного
удара
1011.9 1011.3
06 20.09 штиль 0 5000 м гроза, ливневой дождь 10/3 300 м
[Cb cap As op]
+27.5 +24.6 84 +39 +43 очень
душно
1010.1 1009.6 22
09 20.09 ЮВ 3 9000 м дымка {гроза} 9/3 600 м
[Cu med, cong Cs]
+26.0 +23.8 88 +36 +39 очень
душно
1007.9 1007.3 9
12 20.09 З 3 7000 м дымка {гроза} 9/3 600 м
[Cu med, cong Cs]
+26.0 +23.4 86 +35 +35 очень
душно
1009.0 1008.4 +31.5 31
15 20.09 ЮЗ 3 8000 м дымка 9/3 600 м
[Cu med, cong Cs]
+25.5 +24.0 91 +35 +35 очень
душно
1010.5 1009.9
18 20.09 штиль 0 8000 м дымка 8/3 600 м
[Cu med, cong Cs]
+24.6 +23.0 91 +33 +33 очень
душно
1008.6 1008.0
21 20.09 штиль 0 8000 м дымка 8/3 600 м
[Cu med, cong Cs]
+24.2 +22.6 91 +32 +32 очень
душно
1008.4 1007.8
00 21.09 штиль 0 8000 м дымка 8/3 600 м
[Cu med, cong Cs]
+24.0 +22.5 91 +31 +32 очень
душно
1009.3 1008.8
03 21.09 штиль 0 8000 м дымка 6/1 600 м
[Cu med, cong Cs]
+30.3 +24.9 73 +43 +60 опасность
перегрева
1010.7 1010.1
06 21.09 В 9 8000 м 8/1 600 м
[Cu med, cong Cs]
+31.7 +23.5 62 +43 +44 опасность
перегрева
1008.2 1007.6
09 21.09 В 8 8000 м дымка 6/1 600 м
[Cu med, cong Cs]
+31.2 +24.7 68 +44 +45 опасность
перегрева
1006.7 1006.2
12 21.09 В 5 8000 м зарница 8/4 300 м
[Cb cap Cs]
+28.7 +25.9 85 +43 +43 опасность
перегрева
1008.5 1007.9 +32.2
15 21.09 штиль 0 4000 м гроза, ливневой дождь 10/5 300 м
[Cb cap As op]
+24.0 +23.4 96 +32 +32 очень
душно
1011.2 1010.6 81
18 21.09 штиль 0 6000 м дымка {гроза, дождь} 10/3 300 м
[Cu Sc Ac As Cs]
+23.6 +21.9 90 +30 +30 очень
душно
1009.5 1008.9 2
21 21.09 штиль 0 6000 м дымка 10/3 600 м
[Cu Sc Ac As Cs]
+23.3 +21.8 91 +32 +32 очень
душно
1008.4 1007.8
00 22.09 Ю 3 8000 м дымка 9/3 600 м
[Cu Sc Cs]
+23.6 +22.4 93 +31 +31 очень
душно
1009.8 1009.2
03 22.09 СВ 2 9000 м дымка 9/3 600 м
[Cu med, cong Cs]
+28.3 +24.4 79 +40 +48 очень
душно
1011.3 1010.7
06 22.09 В 8 8000 м дымка 9/3 600 м
[Cu med, cong Cs]
+31.7 +24.7 67 +45 +47 опасность
перегрева
1008.7 1008.1
09 22.09 штиль 0 8000 м дымка 9/3 600 м
[Cu med, cong Cs]
+31.0 +25.4 72 +45 +50 опасность
перегрева
1007.9 1007.3
12 22.09 штиль 0 7000 м дымка 9/3 600 м
[Cu med, cong Cs]
+27.5 +25.5 89 +40 +40 очень
душно
1009.9 1009.4 +32.2
15 22.09 штиль 0 7000 м дымка 8/3 600 м
[Cu hum Cs]
+27.3 +25.3 89 +40 +40 очень
душно
1011.5 1010.9
18 22.09 штиль 0 7000 м дымка 8/3 600 м
[Cu med, cong Cs]
+26.3 +24.0 87 +36 +36 очень
душно
1011.3 1010.7
21 22.09 штиль 0 7000 м дымка 8/3 600 м
[Cu med, cong Cs]
+25.9 +23.7 88 +35 +35 очень
душно
1010.6 1010.0
00 23.09 штиль 0 7000 м дымка 8/3 600 м
[Cu med, cong Cs]
+25.5 +24.0 91 +35 +36 очень
душно
1012.3 1011.7
03 23.09 ЮВ 7 8000 м 8/3 600 м
[Cu med, cong Cs]
+31.0 +24.6 69 +44 +46 опасность
перегрева
1013.2 1012.6
06 23.09 В 10 8000 м дымка 8/3 600 м
[Cu med, cong Cs]
+31.0 +23.8 66 +43 +43 опасность
перегрева
1010.3 1009.8
09 23.09 ЮВ 6 7000 м дымка 8/3 600 м
[Cu med, cong Cs]
+30.5 +24.8 72 +44 +45 опасность
перегрева
1009.6 1009.0

 

Местоположение метеостанции Наратхиват (Таиланд): широта 6.42 долгота 101.81 высота над уровнем моря 5 м.

В архиве по умолчанию представлена погода в Наратхивате за последнюю неделю. Архивные данные за месяц целиком и за предыдущие месяцы, начиная с января 2011 года, Вы можете получить, выбрав интересующий диапазон дат из раскрывающегося списка и нажав кнопку "Ввод!".


*Определитесь, кто Вы:
робот инопланетянин человек

Внимание! Время в таблицах - всемирное. Для получения местного времени необходимо прибавить поправку, которая равна 7 ч.

Смотрите также архив погоды в соседних городах и на ближайших метеорологических станциях:

Погода в Кота-Бхару (Малайзия) (59 км)
Погода в Яла Агромете (Таиланд) (60 км)
Погода в Паттани (Таиланд) (83 км)
Погода в Алор Стар (Малайзия) (158 км)
Погода в Сонгкхле (Таиланд) (158 км)
Погода в Садао (Таиланд) (161 км)
Погода в Хатъяе (Таиланд) (162 км)
Погода в Куала-Тренггану (Малайзия) (184 км)
Погода на Авиабазе Баттерворт (Малайзия) (190 км)
Погода в Сатуне (Таиланд) (193 км)

Пояснения к столбцам:

Ветер - указаны скорость ветра в м/с - средняя за 10 мин, порывы в срок и между сроками (в фигурных скобках) и направление, откуда дует ветер: С - северный, СВ - северо-восточный, В - восточный, ЮВ - юго-восточный, Ю - южный, ЮЗ - юго-западный, З - западный, СЗ - северо-западный.
Видимость - горизонтальная дальность видимости в метрах или километрах. При видимости от 1 до 10 км при отсутствии осадков обычно наблюдается дымка, при ухудшении видимости до 1 км и менее - туман. В сухую погоду видимость может ухудшаться дымом, пылью или мглою.
Явления - указаны атмосферные явления, наблюдавшиеся в срок или в последний час перед сроком; фигурными скобками обозначены явления, наблюдавшиеся между сроками (за 1-3 часа до срока); квадратными скобками обозначены град или гололедные отложения с указанием их диаметра в мм.
Облачность - указаны через наклонную черту общая и нижняя облачность в баллах и высота нижней границы облаков в метрах; квадратными скобками обозначены формы облаков: Ci - перистые, Cs - перисто-слоистые, Cc - перисто-кучевые, Ac - высококучевые, As - высокослоистые, Sc - слоисто-кучевые, Ns - слоисто-дождевые, Cu - кучевые, Cb - кучево-дождевые. Подробнее классификацию облаков см. в Атласе облаков (PDF).
T - Температура воздуха - температура, измеренная на высоте 2 м над землей.
Td - Температура точки росы - температура, при понижении до которой содержащийся в воздухе водяной пар достигнет насыщения.
f - Относительная влажность воздуха - влажноcть воздуха, измеренная на высоте 2 м над землей.
Te - Эффективная температура - температура, которую ощущает одетый по сезону человек в тени. Характеристика душности погоды. При расчете учитывается влияние влажности воздуха и скорости ветра на теплоощущения человека.
Tes - Эффективная температура на солнце - температура, которую ощущает человек, с поправкой на солнечный нагрев. Характеристика знойности погоды. Зависит от высоты солнца над горизонтом, облачности и скорости ветра. Ночью, в пасмурную погоду, а также при ветре 12 м/с и более поправка равна нулю.
P - Атмосферное давление - приведенное к уровню моря атмосферное давление.
Po - Атмосферное давление - измеренное на уровне метеостанции атмосферное давление.
Tmin - Минимальная температура - минимум температуры воздуха на высоте 2 м над землей.
Tmax - Максимальная температура - максимум температуры воздуха на высоте 2 м над землей.
R - Количество осадков - Количество выпавших осадков за период времени, мм. При наведении курсора мыши на число - период времени, за который выпало указанное количество осадков.
R24 - Количество осадков - Количество выпавших осадков за 24 часа, мм.
S - Снежный покров - Высота снежного покрова, см. При наведении курсора мыши на число - состояние снежного покрова и степень покрытия местности в баллах.